Torrington, WY

10:13 AM MDT on August 27, 2016 (GMT -0600)
Torrington Municipal

Weather History for KTOR - February, 2013

Change the Weather History Date:

Friday, February 8, 2013

  Actual Average Record
Temperature  
Mean Temperature 34 °F 30 °F  
Max Temperature 53 °F 44 °F 63 °F (2000)
Min Temperature 15 °F 16 °F -6 °F (2011)
Degree Days  
Heating Degree Days 31 35  
Month to date heating degree days 232 284  
Since 1 July heating degree days 3858 4179  
Cooling Degree Days 0 0  
Month to date cooling degree days 0 0  
Year to date cooling degree days 0 0  
Moisture  
Dew Point 16 °F    
Average Humidity 52    
Maximum Humidity 84    
Minimum Humidity 19    
Precipitation  
Precipitation 0.00 in 0.01 in 0.05 in (2014)
Month to date precipitation T 0.09  
Year to date precipitation 0.10 0.35  
Sea Level Pressure  
Sea Level Pressure 29.88 in    
Wind  
Wind Speed 7 mph (East)    
Max Wind Speed 44 mph    
Max Gust Speed 128 mph    
Visibility 10 miles    
Events      
T = Trace of Precipitation, MM = Missing Value Source: NWS Daily Summary

Daily Weather History Graph

Daily Weather History Graph

Search for Another Location

Airport or City:

Trip Planner

Search our weather history database for the weather conditions in past years. The results will help you decide how hot, cold, wet, or windy it might be!

Date:

Astronomy

Feb. 08, 2013 Rise Set
Actual Time 7:01 AM MST 5:20 PM MST
Civil Twilight 6:32 AM MST 5:49 PM MST
Nautical Twilight 5:59 AM MST 6:23 PM MST
Astronomical Twilight 5:26 AM MST 6:55 PM MST
Moon 5:32 AM MST (2/8) 3:56 PM MST (2/8)
Length of Visible Light 11h 17m
Length of Day
10h 19m
Waning Crescent, 3% of the Moon is Illuminated
Feb 8
Waning Crescent
Feb 10
New
Feb 17
First Quarter
Feb 25
Full
Mar 4
Last Quarter

Hourly Weather History & Observations

Time (MST) Temp. Windchill Dew Point Humidity Pressure Visibility Wind Dir Wind Speed Gust Speed Precip Events Conditions
12:53 AM 23.0 °F 14.7 °F 15.1 °F 72% 30.02 in 10.0 mi East 6.9 mph - N/A   Clear
1:53 AM 26.1 °F 18.4 °F 15.1 °F 63% 30.00 in 10.0 mi ESE 6.9 mph - N/A   Clear
2:53 AM 26.1 °F 21.9 °F 15.1 °F 63% 29.98 in 10.0 mi East 3.5 mph - N/A   Clear
3:53 AM 28.0 °F 17.5 °F 17.1 °F 63% 29.94 in 10.0 mi ESE 12.7 mph - N/A   Clear
4:53 AM 19.9 °F 14.9 °F 12.9 °F 74% 29.99 in 10.0 mi ENE 3.5 mph - N/A   Clear
5:53 AM 19.9 °F - 14.0 °F 78% 30.01 in 10.0 mi Calm Calm - N/A   Clear
6:53 AM 19.9 °F 14.9 °F 14.0 °F 78% 30.03 in 10.0 mi WSW 3.5 mph - N/A   Clear
7:53 AM 18.0 °F - 14.0 °F 84% 30.05 in 10.0 mi Calm Calm - N/A   Clear
8:53 AM 23.0 °F 18.4 °F 16.0 °F 74% 30.01 in 10.0 mi SE 3.5 mph - N/A   Clear
9:53 AM 30.9 °F - 18.0 °F 59% 29.99 in 10.0 mi Calm Calm - N/A   Clear
10:53 AM 36.0 °F - 19.0 °F 50% 29.95 in 10.0 mi Calm Calm - N/A   Clear
11:53 AM 37.9 °F 35.5 °F 19.0 °F 47% 29.91 in 10.0 mi SSE 3.5 mph - N/A   Clear
12:53 PM 42.1 °F 38.4 °F 19.0 °F 40% 29.87 in 10.0 mi SE 5.8 mph - N/A   Clear
1:53 PM 48.9 °F - 18.0 °F 29% 29.80 in 10.0 mi SE 6.9 mph - N/A   Clear
2:53 PM 52.0 °F - 10.0 °F 19% 29.77 in 10.0 mi SE 9.2 mph - N/A   Clear
3:53 PM 52.0 °F - 10.0 °F 19% 29.76 in 10.0 mi ESE 9.2 mph - N/A   Clear
4:53 PM 46.9 °F - 16.0 °F 29% 29.78 in 10.0 mi East 8.1 mph - N/A   Clear
5:53 PM 37.0 °F 29.8 °F 15.1 °F 41% 29.82 in 10.0 mi ENE 10.4 mph - N/A   Clear
6:53 PM 33.1 °F 24.9 °F 16.0 °F 50% 29.82 in 10.0 mi ENE 10.4 mph - N/A   Clear
7:34 PM 30.2 °F - 15.8 °F 55% 29.72 in 10.0 mi North - - N/A   Clear
7:53 PM 30.9 °F 23.5 °F 17.1 °F 57% 29.83 in 10.0 mi ENE 8.1 mph - N/A   Clear
8:53 PM 33.1 °F 30.0 °F 18.0 °F 54% 29.81 in 10.0 mi NW 3.5 mph - N/A   Clear
9:26 PM 33.8 °F 23.2 °F 17.6 °F 52% 29.71 in 10.0 mi NNE 17.3 mph - N/A   Mostly Cloudy
9:53 PM 33.1 °F 22.2 °F 19.0 °F 56% 29.77 in 10.0 mi NNE 17.3 mph - N/A   Scattered Clouds
10:53 PM 30.0 °F 23.2 °F 19.0 °F 64% 29.77 in 10.0 mi North 6.9 mph - N/A   Clear
11:53 PM 30.0 °F 16.6 °F 19.0 °F 64% 29.75 in 10.0 mi NNE 23.0 mph - N/A   Clear